DW7098 Weather Reports


Display with metric or nautical units.
time (UTC)temp
F
wind
direction
speed
MPH
gust
MPH
rain 1hr
in
rain 24hr
in
rain mn
in
humidity
%
barometer
mb
20260901183045 63 255 2.0 8.0 0.00 0.00 0.00
20260901180056 64 180 1.0 6.0 0.00 0.00 0.00
20260901170108 62 216 1.0 4.0 0.00 0.00 0.00
20260901160101 62 265 1.0 3.0 0.00 0.00 0.00
20260901153040 61 217 0.0 5.0 0.00 0.00 0.00
20260901150111 61 171 0.0 2.0 0.00 0.00 0.00
20260901143047 60 232 0.0 4.0 0.00 0.00 0.00
20260901133039 60 258 2.0 5.0 0.00 0.00 0.00
20260901130111 60 234 0.0 4.0 0.00 0.00 0.00
20260901120104 60 250 0.0 5.0 0.00 0.00 0.00
20260901110055 60 261 1.0 5.0 0.00 0.00 0.00
20260901103035 60 271 1.0 5.0 0.00 0.00 0.00
20260901093044 60 235 0.0 3.0 0.00 0.00 0.00
20260901083038 60 224 0.0 3.0 0.00 0.00 0.00
20260901073032 60 216 1.0 3.0 0.00 0.00 0.00
20260901070104 60 202 1.0 2.0 0.00 0.00 0.00
20260901063041 59 237 1.0 4.0 0.00 0.00 0.00
20260901060108 60 271 1.0 5.0 0.00 0.00 0.00
20260901053046 61 234 0.0 2.0 0.00 0.00 0.00
20260901050056 61 205 0.0 1.0 0.00 0.00 0.00
20260901043037 62 257 0.0 0.0 0.00 0.00 0.00
20260901040110 63 263 0.0 1.0 0.00 0.00 0.00
20260901033050 64 248 0.0 2.0 0.00 0.00 0.00
20260901030058 65 257 0.0 2.0 0.00 0.00 0.00
20260901023038 67 221 0.0 2.0 0.00 0.00 0.00
20260901020110 69 237 1.0 4.0 0.00 0.00 0.00
20260901013029 71 195 2.0 5.0 0.00 0.00 0.00
20260901003049 73 233 2.0 4.0 0.00 0.00 0.00
20260901000103 74 14 1.0 5.0 0.00 0.00 0.00
20260831233022 76 96 0.0 5.0 0.00 0.00 0.00
20260831230046 76 137 1.0 7.0 0.00 0.00 0.00
20260831220107 76 242 2.0 7.0 0.00 0.00 0.00
20260831213046 75 153 2.0 7.0 0.00 0.00 0.00
20260831210055 74 192 2.0 6.0 0.00 0.00 0.00
20260831203037 72 173 2.0 7.0 0.00 0.00 0.00
20260831200104 72 350 1.0 7.0 0.00 0.00 0.00
20260831193023 71 99 0.0 5.0 0.00 0.00 0.00